Theta_e
355 355 355 354 354 354 355 355 353 352 350 349 348 349 348 348 348 348 348 348 347 347 348 349 351 353 354 354 353 353 353 354 355 358 360 359 358 358 358 361 363 363 363 362 360 358 356 356 357 356 355 356 355 354 352 350 351 351 353 355 357 359 359 359 364 365 362 361 358 353 352 352 353 355 354 351 349 348 349 352 351 349 349 349 350
353 354 355 354 353 353 353 354 354 352 350 349 348 348 348 347 347 347 346 346 346 347 348 349 350 350 351 351 350 350 351 351 352 354 356 358 360 359 358 359 361 361 361 361 360 360 359 357 358 359 357 355 356 355 352 351 351 350 352 353 353 354 352 353 359 363 363 363 360 354 353 353 353 353 350 351 350 348 351 355 355 353 351 351 352
353 354 355 354 353 353 352 352 353 352 350 350 349 348 347 347 347 346 346 345 346 346 347 348 349 349 349 349 348 348 349 352 353 354 355 356 359 359 357 356 358 359 360 359 358 359 360 357 357 358 357 356 356 356 355 353 351 351 352 353 353 353 351 353 358 361 362 363 361 357 354 352 352 352 350 350 350 350 354 357 357 355 353 355 356
353 354 355 354 353 353 353 351 351 351 350 349 348 347 347 346 346 346 345 345 345 346 347 348 348 348 349 349 350 349 349 352 354 355 355 355 357 359 359 358 358 358 358 358 358 357 357 357 357 356 356 357 357 356 355 354 352 351 352 353 355 356 355 357 359 357 357 361 361 357 355 354 353 352 351 351 350 351 354 358 359 357 355 356 356
354 354 355 355 354 353 353 351 350 350 350 349 347 347 346 346 346 346 346 346 346 346 347 347 348 348 350 350 351 351 352 353 354 356 356 355 355 357 359 359 359 358 358 358 358 357 357 357 357 356 357 357 356 355 354 353 353 351 349 352 356 357 356 357 358 357 355 358 361 359 358 358 355 351 350 350 351 352 353 356 358 358 357 356 355
355 355 355 355 354 353 352 351 350 349 349 348 346 346 346 345 345 346 346 346 347 347 348 348 349 349 350 352 352 352 354 354 355 355 355 354 354 355 356 357 358 358 358 358 357 358 358 357 356 357 357 355 355 355 353 352 353 351 351 355 358 357 355 354 355 357 356 357 359 358 359 360 357 353 351 350 352 354 354 354 355 357 357 355 354
356 356 357 356 355 354 353 352 350 349 348 347 346 346 345 345 345 346 346 347 347 347 348 350 351 352 353 354 354 353 353 354 355 356 355 355 355 354 355 356 357 358 358 358 358 357 357 356 357 358 356 355 356 357 355 353 353 353 352 355 357 356 354 353 353 354 354 354 355 354 355 358 357 354 351 350 351 352 353 354 354 355 356 355 354
357 358 359 359 357 356 354 352 351 349 348 348 347 346 345 345 346 346 347 348 348 348 348 350 353 354 355 355 355 354 353 353 355 355 356 357 357 356 356 356 357 357 356 357 357 358 356 355 356 356 354 354 356 358 358 356 356 357 356 355 356 356 355 353 352 353 352 352 353 353 353 356 357 354 350 349 350 349 351 353 353 352 354 354 354
360 360 358 357 358 358 357 355 354 353 353 352 350 349 348 346 346 346 345 347 349 350 350 350 353 356 356 355 355 353 352 353 354 356 357 359 359 358 358 359 358 356 355 355 356 357 356 355 355 356 356 355 355 357 361 360 358 359 359 357 357 357 357 355 353 353 352 352 353 355 356 356 356 355 351 349 348 349 350 351 351 352 352 352 354
359 358 356 356 356 358 358 358 358 357 355 354 353 353 354 352 349 349 349 349 350 353 353 351 351 353 354 354 354 352 352 353 353 356 358 359 359 359 360 360 359 356 355 355 355 355 355 353 353 355 356 355 355 358 359 358 357 357 358 356 355 355 356 355 355 354 354 352 351 354 357 357 356 354 352 350 349 350 351 350 350 350 350 351 353
358 356 356 357 357 357 358 358 359 356 354 354 353 353 354 354 351 351 352 352 352 353 352 352 353 352 351 352 354 355 355 356 355 355 357 358 358 358 359 358 358 357 356 356 355 353 352 352 352 352 352 353 356 358 358 358 358 357 355 355 355 355 356 356 356 355 353 352 352 354 356 357 356 355 354 354 353 352 352 351 350 350 351 353 354
358 356 356 358 358 359 360 360 358 356 356 356 354 353 354 353 352 351 351 351 351 352 352 352 353 352 350 352 354 356 357 356 355 355 356 356 355 356 357 357 357 356 357 357 353 349 350 352 352 352 352 354 356 358 358 359 360 358 356 357 357 356 356 356 355 354 352 352 354 356 356 355 355 354 354 353 353 354 353 351 350 350 351 352 352
357 355 354 357 358 359 360 360 358 357 358 358 357 356 355 354 353 352 352 352 351 352 353 353 355 354 352 354 356 356 354 354 355 354 353 354 354 355 356 357 357 356 356 355 352 350 351 351 350 354 356 356 357 358 359 360 360 359 357 357 356 355 354 353 352 352 353 354 354 354 354 353 353 352 351 349 350 351 351 350 350 350 350 350 350
353 355 356 358 360 359 359 359 358 358 358 357 357 357 356 356 355 354 354 353 353 353 353 353 354 353 353 355 357 355 353 353 353 352 352 353 354 354 354 357 359 357 355 354 352 353 353 352 352 354 355 356 359 358 357 358 359 359 357 356 356 355 354 353 351 350 351 353 353 352 350 350 350 349 347 347 348 347 347 347 347 347 348 349 347
348 352 356 360 362 361 360 359 359 359 358 356 356 356 356 357 356 356 355 354 354 354 353 353 353 353 354 356 358 357 356 355 353 352 353 354 353 353 353 354 356 354 354 354 353 353 354 354 355 354 354 355 357 358 357 358 358 357 355 354 354 353 351 351 350 349 349 349 349 349 347 346 346 346 346 345 344 343 343 343 342 343 346 346 345
347 349 353 358 360 359 358 358 358 358 358 357 357 357 357 357 356 355 354 354 356 355 354 355 354 353 353 354 355 355 354 355 354 353 354 354 354 353 352 351 352 353 354 354 353 353 354 355 354 354 354 355 356 357 358 357 357 355 353 352 351 349 347 346 346 346 346 346 344 343 343 342 343 343 342 341 339 338 339 339 337 336 338 340 341
348 349 353 356 357 358 357 357 356 357 358 358 358 357 357 356 355 354 353 353 354 355 354 355 356 355 353 352 352 350 349 352 353 352 353 353 352 352 352 352 352 354 356 355 353 352 355 355 354 353 353 353 355 355 355 354 355 354 352 351 350 347 343 341 341 342 342 343 342 341 340 338 336 335 333 332 332 331 330 331 330 330 332 336 339
349 351 353 355 357 357 357 357 356 357 357 358 357 357 357 356 354 354 354 352 351 353 355 354 354 355 355 354 352 349 348 351 351 350 350 350 350 350 351 353 354 355 355 354 352 351 352 352 352 351 351 351 351 351 350 351 352 353 351 352 352 348 341 338 339 339 339 338 338 337 335 331 328 326 325 324 322 320 320 324 326 329 332 334 334
349 351 351 353 355 356 355 356 356 356 356 356 356 356 356 355 355 355 355 353 351 353 354 352 352 353 353 353 352 350 349 350 350 349 348 348 349 349 350 353 355 355 354 352 351 351 349 349 349 349 348 348 348 348 348 349 352 353 352 351 352 350 344 339 339 339 338 336 334 332 331 329 328 326 324 321 318 315 317 322 324 326 328 328 328
349 349 349 351 354 354 353 353 354 354 355 355 355 355 355 355 355 354 354 353 352 353 353 351 350 352 352 351 351 350 349 349 349 348 348 347 348 348 349 352 354 353 352 351 350 349 347 346 346 346 347 348 347 347 347 347 349 351 350 350 350 349 346 342 340 340 338 334 331 328 329 330 329 328 325 323 321 319 317 318 321 322 323 323 325
349 349 350 351 352 352 352 351 351 352 353 354 354 354 354 354 354 353 352 352 352 352 352 351 350 350 349 349 349 347 347 346 346 346 346 346 347 347 348 350 351 352 351 350 349 347 344 343 344 343 345 346 345 344 343 342 344 347 347 348 348 346 344 342 339 336 334 332 329 329 330 330 329 328 327 325 324 323 320 318 318 319 319 319 319
346 347 350 350 350 351 350 350 350 350 350 352 352 352 352 352 351 351 351 351 351 350 350 349 348 347 346 345 343 342 341 341 341 342 343 344 345 346 347 349 350 351 349 347 347 346 342 341 341 340 341 342 340 338 336 335 339 343 345 344 345 344 341 338 334 332 332 332 331 331 331 330 329 328 328 326 324 322 322 321 319 319 319 317 316
346 347 348 348 348 348 347 347 348 347 347 348 350 350 349 349 349 349 350 350 349 348 348 347 345 344 343 341 338 336 336 336 337 338 339 340 341 343 346 347 348 349 347 344 345 344 341 339 339 337 336 334 332 332 332 332 336 340 341 340 339 338 336 334 332 331 331 331 330 329 328 329 330 328 326 325 321 319 321 322 321 321 321 319 318
347 347 347 347 347 347 346 346 347 346 346 347 348 348 347 346 347 349 349 349 348 346 345 344 342 341 339 336 333 331 331 331 332 334 336 338 340 341 342 344 345 345 344 342 341 340 338 337 335 333 331 329 328 330 331 332 334 335 335 335 335 334 332 332 331 330 328 327 327 327 327 327 327 325 322 321 320 319 321 322 322 322 322 322 322
347 347 347 346 346 346 346 346 346 346 346 346 346 346 344 343 344 346 346 345 344 343 342 341 339 338 335 332 330 329 328 328 328 329 331 333 335 337 338 339 339 339 339 339 338 337 335 333 331 329 327 326 326 328 330 330 331 331 331 331 331 331 330 330 329 329 329 328 327 327 326 324 322 320 319 321 322 322 321 321 322 323 323 321 321
344 344 343 343 344 344 344 343 344 345 345 344 344 344 342 341 341 341 342 341 340 339 339 338 336 334 332 330 329 328 327 327 327 327 327 329 331 332 331 332 332 332 333 334 333 332 330 329 326 325 324 325 326 327 328 328 328 329 329 329 329 330 330 329 330 329 329 328 327 326 325 323 322 322 322 323 323 323 322 320 320 321 322 320 319
340 339 339 340 341 340 340 340 342 343 342 342 341 341 340 340 339 339 339 339 337 336 335 334 333 331 329 328 327 327 326 325 325 325 325 326 325 324 323 324 324 324 325 326 326 325 325 325 324 323 325 326 326 326 326 326 327 328 329 328 328 329 329 329 328 326 325 326 325 324 323 323 323 324 325 325 324 324 323 321 319 320 321 320 321
338 337 337 338 337 336 336 338 340 339 338 338 338 338 338 337 337 337 336 336 335 334 333 332 331 329 327 326 325 325 325 324 324 324 324 323 321 318 320 323 323 322 322 322 321 321 323 325 326 326 327 327 325 323 324 326 327 327 326 325 325 326 326 326 325 324 324 323 323 323 324 325 325 324 324 324 325 324 322 321 321 321 321 321 322
337 336 335 335 334 334 334 336 336 335 335 335 334 334 334 334 334 334 333 333 333 332 331 330 328 327 327 326 325 325 325 325 325 324 323 322 320 318 321 325 328 328 325 319 318 321 325 328 329 329 327 326 325 325 326 327 328 327 326 324 325 325 325 325 325 324 324 324 324 324 324 324 324 323 323 323 322 321 320 320 321 321 321 321 321
336 335 335 334 333 333 333 333 333 333 332 332 332 331 331 330 329 328 327 327 328 328 328 328 327 327 327 326 326 327 326 326 325 324 322 320 319 317 318 322 328 332 329 322 322 327 330 331 331 330 327 326 326 327 328 328 328 327 325 324 325 325 325 325 325 324 323 324 324 323 322 322 322 322 321 320 320 319 319 320 320 320 320 319 319
335 334 335 335 334 333 333 333 333 333 332 332 331 331 330 330 330 329 328 326 325 325 325 325 326 326 326 326 326 326 326 325 324 322 320 318 316 316 316 317 323 330 331 328 329 332 332 331 331 330 328 328 329 329 327 326 326 326 324 323 324 324 324 324 323 323 323 323 322 322 322 321 321 320 319 319 319 319 319 319 318 318 318 317 317
335 335 335 335 335 335 334 334 334 334 333 332 332 331 331 330 329 329 329 329 327 326 326 326 326 326 326 326 326 326 325 324 322 320 317 316 315 314 314 314 318 326 330 330 332 335 333 331 331 331 330 330 330 328 326 325 325 324 324 324 325 324 323 323 321 321 322 321 320 320 321 320 319 318 318 318 318 318 318 318 317 317 317 316 316
334 334 334 335 335 335 335 335 335 335 335 334 333 333 332 331 329 328 328 328 328 328 327 327 327 327 326 325 324 323 322 320 318 315 314 314 314 314 315 317 319 324 327 330 333 335 335 332 330 330 329 328 328 326 325 325 324 324 323 324 324 323 321 320 320 321 321 320 319 320 320 318 317 318 317 317 317 317 317 316 316 315 315 314 314
333 333 333 333 333 333 334 334 334 335 335 335 334 333 332 332 332 331 329 329 329 328 329 328 327 326 324 322 320 318 316 314 313 313 313 313 314 315 318 321 323 325 327 329 331 333 333 332 330 328 327 326 326 325 325 324 324 324 323 323 323 321 319 319 320 321 321 320 320 320 318 316 316 317 316 315 315 315 314 314 314 313 313 312 312
332 333 333 332 332 332 333 333 332 333 333 333 333 332 331 332 332 331 331 331 330 328 327 325 322 320 318 316 314 313 312 311 312 312 313 314 315 318 321 324 326 327 328 329 329 330 331 330 328 326 325 325 325 324 324 323 323 323 322 322 321 321 320 320 321 320 319 319 318 318 316 315 315 315 314 314 314 313 313 313 313 312 311 311 310
331 332 332 333 333 333 332 332 333 333 332 331 331 330 330 331 330 329 329 329 328 327 324 321 317 315 314 313 312 312 311 310 310 311 312 314 317 322 325 327 327 328 329 329 330 330 330 328 326 325 325 324 324 324 323 323 323 322 322 321 321 321 320 320 320 319 319 318 317 317 316 315 314 314 314 313 313 312 312 312 311 310 309 309 309
333 334 334 333 332 332 333 333 333 332 330 329 329 329 329 329 329 328 328 327 327 327 325 320 316 315 314 313 312 313 311 310 309 309 310 314 320 325 327 327 325 325 326 329 329 329 329 328 326 326 325 324 324 323 323 322 323 322 321 321 321 320 320 319 318 318 317 316 315 315 315 315 314 314 313 312 311 311 311 310 309 309 308 309 308
327 329 332 333 331 331 333 332 328 327 328 328 327 328 329 328 327 327 328 328 327 328 326 322 319 318 316 313 314 315 314 312 311 310 311 316 322 325 326 327 326 325 326 328 328 328 328 327 326 326 325 325 324 323 322 322 322 321 319 320 320 319 318 317 316 316 315 315 315 315 314 314 313 312 311 311 310 310 309 308 308 308 308 308 308
322 321 325 329 328 328 331 329 325 325 328 329 328 328 329 328 326 327 329 328 326 327 328 325 323 323 320 316 314 314 315 315 315 315 315 318 321 323 324 325 327 327 327 327 327 327 327 327 326 325 325 324 323 322 321 320 320 319 319 319 318 318 318 318 317 316 316 315 315 315 314 313 313 311 310 310 309 308 307 307 307 307 307 306 306
327 324 324 327 327 326 328 328 327 327 329 328 328 328 329 329 328 328 328 328 326 326 327 327 325 325 325 321 316 314 315 318 320 320 321 322 323 322 322 323 325 327 327 327 327 327 327 326 325 325 324 323 322 321 320 320 320 319 319 318 318 317 317 317 317 316 315 315 314 314 313 312 311 310 309 308 307 306 306 306 306 306 306 305 305
331 330 329 328 328 327 327 328 328 329 328 327 328 329 329 329 328 328 328 329 328 327 327 328 327 327 327 326 322 319 318 320 322 323 325 325 325 323 322 322 323 325 325 325 325 325 324 324 324 323 323 322 321 320 320 319 318 317 317 316 316 316 315 315 316 315 315 314 313 313 312 311 309 308 307 307 306 306 306 306 305 305 305 304 304
327 328 329 329 329 329 328 329 329 330 329 328 328 329 329 328 328 328 327 328 328 327 327 327 327 327 327 327 326 324 321 320 322 325 325 325 324 323 322 322 322 322 322 323 323 322 322 323 323 322 322 320 319 318 318 317 316 316 315 315 316 316 315 315 314 314 313 313 312 312 311 310 308 307 307 306 306 305 305 305 305 304 304 304 303
320 322 325 326 327 328 328 328 328 329 329 329 329 329 329 329 328 328 328 327 327 327 327 326 326 327 327 327 327 326 324 322 322 323 324 324 324 324 323 323 322 321 321 322 322 322 322 322 321 320 320 319 317 316 316 315 316 315 315 315 315 315 315 314 313 313 312 312 311 310 310 309 308 307 306 306 305 305 304 304 304 304 303 303 302
319 319 321 322 323 324 325 325 326 326 326 327 327 327 328 328 328 327 327 326 326 326 327 326 325 326 328 327 326 326 326 325 324 324 324 324 324 324 324 324 323 322 322 322 322 321 321 320 319 318 318 317 316 315 314 313 314 314 313 313 313 313 313 312 312 311 311 310 309 308 308 308 307 306 306 305 304 304 304 303 303 303 302 302 302
318 317 317 318 318 319 321 322 323 323 323 323 323 324 325 325 325 326 325 326 326 326 326 326 325 326 328 328 326 325 326 326 326 326 324 324 324 323 323 323 322 322 321 321 320 320 319 319 318 318 317 316 315 314 313 312 312 311 311 312 312 312 311 310 309 309 309 308 307 307 306 306 306 305 305 304 303 303 303 303 302 302 302 302 302
316 316 316 316 316 317 318 319 319 319 320 320 320 321 321 320 320 320 320 322 323 324 324 325 324 325 327 327 327 327 327 327 327 326 324 324 323 323 322 323 323 323 321 321 320 320 319 318 318 317 316 315 314 313 312 312 312 310 310 310 310 310 309 309 308 307 307 306 306 305 305 305 304 304 304 303 302 302 302 302 302 302 302 301 301
317 317 316 316 317 317 317 317 317 317 318 318 318 318 318 318 317 317 318 319 319 319 319 320 321 321 322 324 324 325 326 325 325 324 323 323 323 323 323 323 324 323 322 321 320 319 318 317 317 316 316 315 314 312 311 311 311 310 309 309 309 309 308 308 307 307 305 305 304 304 303 303 303 303 302 302 302 302 302 302 301 301 301 301 301
317 317 317 317 317 316 316 316 317 317 317 317 317 317 317 318 318 318 318 318 317 316 317 318 319 319 319 319 320 320 321 321 321 321 322 322 323 324 324 323 322 322 321 319 318 318 318 317 316 315 315 314 313 312 310 309 309 309 308 308 308 307 307 307 306 306 305 304 303 302 302 302 302 302 302 302 302 301 301 301 301 301 301 301 301
316 317 317 316 316 315 315 316 316 316 316 316 316 316 316 316 316 317 317 317 317 317 317 317 317 317 317 317 317 318 319 319 319 320 320 320 322 323 323 321 320 320 320 319 317 317 317 316 314 313 313 312 311 310 308 308 308 308 307 307 306 306 305 305 305 304 304 303 302 301 301 302 302 302 302 301 301 301 301 301 301 301 301 301 301
315 316 315 315 315 316 316 316 316 316 316 316 316 316 316 316 316 316 316 316 316 316 316 316 316 316 316 316 316 317 318 318 318 319 319 320 321 322 322 321 320 320 319 317 316 316 315 313 312 311 311 310 310 309 308 308 307 306 305 305 304 304 304 303 303 302 302 301 300 301 301 301 301 301 301 301 301 301 300 300 301 301 301 301 301
314 314 314 314 315 315 315 315 315 315 315 315 315 315 315 315 315 315 315 315 315 315 315 315 315 315 315 315 315 316 317 317 317 318 319 320 320 321 321 321 320 319 317 315 314 313 312 311 310 310 309 309 308 307 306 305 304 303 303 302 302 302 301 301 300 299 298 298 298 300 301 301 301 301 301 300 300 300 300 300 301 301 301 301 302
Wind_Speed
22 21 20 19 19 18 19 19 18 17 16 16 16 15 15 15 14 14 14 14 14 14 14 14 14 14 14 13 13 14 15 14 13 13 13 12 11 10 8 7 9 8 8 8 8 8 9 8 8 7 7 9 9 7 7 8 6 6 6 5 5 4 2 2 2 3 4 3 5 6 4 4 4 3 4 4 4 4 4 6 4 4 5 6 6
22 21 20 19 19 19 18 18 18 17 16 16 16 15 15 15 15 14 14 14 14 14 15 13 13 14 14 14 14 15 15 14 12 12 12 12 11 10 9 10 11 10 9 9 9 9 10 10 9 8 8 9 8 7 8 8 7 6 4 3 2 2 2 3 2 2 3 3 6 7 6 6 5 5 6 5 4 4 4 6 7 6 4 4 4
22 21 20 19 19 18 18 18 18 18 17 16 16 16 15 15 15 15 15 15 15 14 14 14 14 14 13 13 13 13 11 10 10 11 11 11 11 11 10 10 11 10 10 10 10 10 10 11 10 9 9 8 7 5 6 7 9 8 4 4 5 3 3 5 4 5 7 6 6 9 10 8 6 7 8 6 5 4 5 6 5 4 2 3 3
21 22 21 19 19 18 18 18 18 18 18 16 16 16 15 15 15 16 15 14 16 16 14 14 15 14 13 13 13 11 10 10 10 11 11 12 12 11 11 10 10 10 11 11 11 11 11 11 10 9 8 7 7 5 4 3 4 3 2 3 4 3 3 3 2 3 8 9 8 9 12 10 8 9 10 9 7 6 4 5 5 5 4 1 3
21 22 21 19 19 18 18 17 17 18 18 17 16 16 15 15 16 17 16 14 15 17 16 14 14 14 14 13 13 12 11 11 11 11 12 12 12 11 12 12 11 11 12 12 11 11 11 11 10 8 6 5 7 7 5 4 5 4 1 2 3 1 2 3 2 2 2 8 9 10 11 12 11 10 9 8 8 6 4 4 5 6 6 1 3
20 21 22 20 19 19 18 18 17 17 17 17 17 16 16 16 16 18 17 15 13 14 16 16 15 15 15 14 14 13 12 12 12 12 12 12 12 12 12 11 11 11 12 12 12 11 11 11 10 8 8 8 8 6 6 7 7 4 2 2 2 2 5 5 4 2 1 4 6 7 8 9 10 10 9 9 8 7 6 7 4 3 5 3 4
19 20 21 20 20 19 18 18 17 17 17 17 17 16 16 17 16 17 18 18 17 15 15 17 17 16 16 15 15 14 14 14 13 13 13 12 12 12 12 11 11 10 11 12 12 11 11 10 9 9 10 8 6 5 5 6 5 3 2 1 1 3 3 3 3 2 2 4 4 5 6 6 6 7 8 8 8 7 8 8 5 3 5 6 4
19 21 21 19 20 20 18 17 17 17 16 17 17 16 16 17 16 15 15 16 17 17 16 16 17 17 16 16 15 14 15 14 14 14 14 13 13 13 12 12 11 12 11 10 11 11 12 11 9 9 10 6 4 4 4 3 2 1 0 1 2 1 1 1 2 2 3 4 4 5 6 6 5 6 5 5 6 7 6 6 6 4 5 8 5
15 14 12 8 11 14 14 12 13 14 13 13 15 14 13 15 15 14 16 17 17 18 18 17 17 17 17 17 16 15 15 15 14 14 14 15 14 12 11 9 10 12 11 11 11 9 9 10 9 8 7 5 3 4 3 1 0 2 2 1 2 2 1 2 2 1 3 4 3 5 6 6 6 5 4 4 4 4 4 5 6 6 6 9 7
19 15 12 8 8 11 12 10 10 11 11 12 14 12 10 10 11 9 10 12 12 14 16 17 18 17 16 16 16 16 14 14 14 14 15 16 14 11 9 8 9 11 11 12 12 7 7 8 8 8 7 5 3 5 5 3 2 3 3 2 2 3 3 4 4 3 4 4 4 6 7 5 3 2 4 4 3 3 4 5 7 8 8 7 7
21 20 21 19 13 10 12 12 11 11 12 12 14 15 13 11 10 9 8 7 6 7 10 11 11 9 10 12 12 13 12 14 15 15 15 15 14 11 9 9 10 10 9 10 8 7 7 7 8 7 6 6 6 5 4 3 3 3 3 2 2 2 3 3 3 3 4 5 6 7 6 3 1 2 3 4 5 5 6 6 7 8 8 6 5
17 20 22 19 16 13 12 12 12 12 13 11 12 16 16 13 12 12 10 9 8 7 9 10 9 7 9 11 11 11 12 14 15 14 14 15 14 14 12 11 11 10 9 9 6 9 4 4 5 5 3 2 3 3 2 3 3 2 2 2 2 2 3 3 4 4 5 6 6 6 4 2 2 3 3 4 6 6 7 7 6 5 7 7 4
16 20 21 17 15 15 14 14 14 13 13 13 12 14 14 12 12 12 9 8 9 8 7 5 5 6 8 10 12 13 14 14 14 13 13 14 15 15 13 10 11 12 10 8 6 5 5 7 7 6 4 3 4 4 4 4 2 2 3 3 4 3 4 4 4 3 5 6 5 3 2 1 0 0 1 3 4 4 6 7 6 5 6 7 5
12 14 16 14 12 13 14 15 15 14 14 14 13 13 13 12 13 12 9 8 10 10 7 5 4 7 8 10 12 13 14 15 13 11 11 12 13 14 12 8 8 10 9 6 4 6 9 9 9 8 7 7 6 6 6 5 3 4 5 5 5 5 4 4 4 4 2 3 3 3 3 4 4 4 2 3 3 4 4 5 8 9 9 8 5
8 6 7 9 12 13 14 14 13 13 14 14 12 12 13 13 14 13 10 10 10 11 10 9 9 10 9 10 10 10 11 12 11 9 9 10 11 11 10 9 9 9 9 9 7 7 8 7 8 9 10 9 6 6 7 6 5 5 6 6 6 5 4 3 4 3 3 4 5 5 5 5 4 4 3 4 4 3 4 5 8 8 8 9 5
14 10 8 8 11 12 13 13 13 12 12 11 11 11 12 13 13 12 11 12 11 11 11 10 10 9 9 9 9 9 10 10 8 8 8 9 10 10 9 11 11 8 6 8 7 5 4 4 4 6 8 8 7 6 7 7 6 7 7 6 5 4 2 1 2 2 2 3 4 4 4 3 2 3 3 3 2 3 4 5 5 4 5 8 4
16 16 14 12 10 10 11 12 12 12 11 10 10 10 10 11 12 11 10 11 11 11 11 10 8 7 8 8 7 7 10 10 8 8 9 9 8 8 9 9 8 5 3 5 5 6 5 3 3 4 7 8 7 5 5 6 7 7 7 6 7 5 2 2 2 1 1 2 2 2 1 1 1 1 1 1 2 3 4 3 6 7 7 8 3
12 13 12 11 10 9 9 10 11 10 10 10 10 10 10 10 11 11 9 9 10 9 9 10 8 6 5 3 2 3 7 7 6 7 9 8 7 7 7 7 6 4 3 4 5 6 6 6 6 6 6 6 6 4 5 6 6 7 7 6 8 8 7 7 6 7 6 6 5 4 3 3 3 3 3 3 3 3 2 4 6 6 6 7 6
10 9 9 9 10 10 10 9 10 10 11 11 11 11 10 8 8 9 9 8 10 9 8 8 7 5 4 3 3 4 5 5 5 7 8 7 7 8 7 6 5 4 5 6 6 5 5 8 10 9 7 6 4 3 4 5 5 5 5 6 8 8 9 11 10 9 9 8 7 5 4 4 5 6 8 8 6 5 4 5 6 6 5 7 8
9 9 8 9 9 9 9 9 9 9 9 10 10 10 10 9 9 10 10 9 9 9 7 7 6 7 7 7 7 8 6 5 5 6 7 7 7 8 8 6 6 5 6 8 8 6 5 6 8 8 7 6 5 4 5 6 7 6 6 7 6 7 11 13 11 10 10 8 6 5 5 5 4 5 8 10 9 9 8 6 7 8 7 6 9
8 8 8 8 7 7 7 8 8 8 8 8 8 8 10 11 11 10 10 10 10 9 10 11 11 9 9 6 6 6 5 4 4 4 6 6 7 7 8 7 7 7 7 7 9 9 9 9 8 7 6 5 5 5 4 5 8 8 7 5 5 10 13 12 9 8 8 7 6 6 6 5 4 4 7 8 8 9 10 9 8 8 8 7 8
9 8 7 8 7 7 7 7 7 7 6 6 6 6 8 11 12 11 11 12 13 12 12 12 11 9 9 6 4 4 3 3 2 2 3 3 3 4 6 7 8 9 9 9 11 12 12 11 8 5 4 3 2 2 2 4 6 7 5 4 6 8 8 9 8 7 7 7 6 5 4 4 4 5 6 7 7 7 7 8 8 8 7 6 6
9 9 8 7 6 6 6 6 5 5 5 5 5 5 5 8 10 11 13 15 15 15 14 12 11 11 10 7 3 1 0 1 1 2 2 1 1 1 3 3 5 7 9 11 13 13 12 10 7 4 2 2 2 3 4 5 7 8 8 9 9 9 9 9 8 5 6 7 5 5 5 5 5 5 4 5 6 6 6 7 7 7 8 9 8
9 8 7 6 5 4 4 3 3 3 4 4 4 2 2 5 8 10 15 19 19 17 16 14 14 14 12 10 7 4 3 4 4 4 3 2 1 1 2 3 3 3 5 9 11 12 11 9 7 6 6 7 7 7 8 9 12 13 14 14 13 11 10 8 7 5 6 6 4 4 4 4 4 3 3 3 5 6 7 6 6 6 7 9 8
10 9 8 7 6 5 5 5 5 5 4 4 4 3 3 2 3 4 12 18 18 16 14 13 14 14 12 10 8 5 5 5 6 6 5 4 3 2 2 2 1 1 2 5 6 7 9 9 8 9 9 9 9 9 9 12 15 16 16 14 12 9 8 7 6 5 5 5 4 4 4 4 3 3 3 3 4 6 7 7 7 6 6 7 8
15 14 14 14 13 11 10 9 9 8 7 5 4 3 2 3 2 4 9 13 14 13 11 10 10 11 10 8 6 6 6 6 6 7 6 5 4 4 2 2 3 3 3 5 6 7 9 9 10 11 11 11 11 11 13 14 15 14 13 11 9 7 7 7 6 4 4 5 4 4 4 3 1 3 4 3 3 5 6 7 9 9 8 9 9
17 17 17 16 14 12 13 14 14 12 11 11 10 8 7 8 8 9 10 10 10 9 7 7 6 6 6 7 7 7 8 8 9 8 7 6 6 7 6 6 7 8 7 8 10 11 12 12 12 12 12 13 14 14 15 14 12 10 8 7 6 7 7 7 6 5 4 5 5 5 4 1 2 2 1 2 3 3 4 7 9 9 9 10 10
17 16 15 14 13 14 15 15 15 15 16 16 15 14 13 12 12 11 10 9 8 7 7 6 5 5 7 8 8 9 9 9 9 9 8 8 8 10 10 11 11 10 8 10 12 12 13 13 12 12 14 16 16 14 14 12 10 9 8 5 4 6 5 5 6 5 4 3 3 3 1 1 2 2 2 1 4 5 5 8 9 8 9 10 10
17 16 15 15 16 17 17 16 16 17 18 17 16 15 13 13 13 12 9 7 6 7 7 7 7 8 8 9 9 8 8 8 8 7 7 7 7 8 8 8 8 7 7 9 11 11 10 10 10 11 14 16 15 13 12 11 10 10 8 5 5 6 6 6 7 6 3 2 1 1 1 2 3 3 4 6 7 7 7 8 8 7 8 9 9
17 16 15 15 16 16 16 15 16 18 18 18 18 18 15 14 13 13 12 10 8 8 9 9 9 9 8 8 8 7 6 6 6 6 5 4 4 5 5 5 7 7 8 8 9 9 9 9 9 11 14 15 14 12 11 11 10 10 8 4 4 6 8 8 8 5 2 1 1 3 3 5 7 7 7 7 8 7 8 7 7 7 8 9 9
16 15 14 15 15 15 14 13 12 14 16 18 18 19 17 15 14 13 12 11 10 9 10 10 10 8 7 6 6 4 4 4 3 3 2 2 2 2 3 4 6 8 10 11 9 9 9 10 11 13 14 14 14 13 12 12 9 8 9 7 5 6 7 9 8 6 7 6 4 5 6 6 8 9 8 8 8 7 7 6 7 7 8 8 8
15 14 13 13 14 14 13 12 11 11 12 14 14 14 14 13 13 12 11 9 8 8 7 7 6 5 4 3 2 1 1 2 2 2 2 3 3 2 3 5 6 9 12 12 9 7 8 10 12 13 15 16 13 8 10 11 7 4 5 9 10 10 8 6 4 3 8 8 7 7 7 7 8 8 7 7 7 7 7 8 8 8 8 8 8
13 13 12 12 13 12 12 11 9 9 10 10 11 11 10 9 9 10 10 9 7 5 5 4 3 2 1 1 1 1 2 3 4 4 4 4 3 3 3 4 7 10 13 12 7 6 7 10 14 13 13 12 9 7 7 7 6 3 4 9 12 11 9 8 5 4 6 6 7 6 7 7 8 7 6 7 8 8 9 10 9 9 9 9 10
12 12 11 10 10 10 10 9 7 7 8 8 9 9 8 8 8 7 7 7 5 4 3 3 2 1 1 1 2 2 3 3 3 3 3 3 2 3 3 4 7 9 12 12 8 9 12 9 9 7 3 4 9 9 6 6 7 6 6 9 10 9 8 8 6 5 5 4 6 6 6 6 8 7 6 8 8 8 9 9 9 9 9 9 9
11 10 10 9 9 9 8 7 7 7 6 6 7 8 8 7 6 5 5 5 5 5 3 2 2 2 1 1 1 1 1 1 1 0 2 2 3 3 2 2 4 6 7 8 8 9 11 7 4 6 8 9 10 10 10 9 7 6 6 8 10 9 9 7 6 5 4 3 4 5 4 5 6 6 6 7 7 7 7 8 8 8 9 9 9
9 9 8 8 8 8 8 7 6 6 5 4 5 6 6 6 5 4 4 4 5 6 5 3 3 2 1 2 3 2 2 3 2 1 3 4 4 4 3 2 3 3 4 5 6 6 5 6 8 9 9 9 8 9 10 8 5 5 7 8 10 10 10 9 8 7 5 3 3 4 4 4 4 4 5 5 6 6 7 7 7 8 9 9 9
10 10 9 9 8 8 7 5 5 4 3 4 3 3 2 3 3 4 5 6 6 7 7 5 4 4 4 4 4 4 3 3 2 2 4 6 7 6 4 3 3 3 4 5 4 4 2 3 6 6 6 6 5 3 3 5 8 9 9 9 8 7 6 4 4 3 2 2 3 3 2 2 2 3 4 5 6 6 6 6 7 8 8 8 9
11 9 7 7 6 5 6 5 4 4 4 3 2 1 1 2 1 1 3 5 6 7 8 7 5 6 7 6 6 5 4 3 3 4 6 8 8 4 0 3 5 6 6 5 4 4 3 0 2 3 3 4 5 4 5 8 10 10 8 7 7 6 5 4 5 5 4 4 3 1 1 1 2 3 3 4 5 5 6 7 8 9 9 9 9
10 8 5 5 7 5 3 5 3 4 5 3 2 2 2 2 1 0 2 4 4 4 7 8 7 7 8 8 8 7 5 3 2 4 6 7 5 3 4 3 4 6 5 4 4 3 1 2 4 3 4 5 6 7 8 8 7 6 6 5 5 4 4 2 2 2 2 1 1 1 1 2 2 2 3 4 5 6 7 8 8 8 9 9 10
8 7 5 5 8 8 4 2 1 2 2 1 0 1 1 1 1 1 2 4 5 4 5 6 6 8 10 10 8 7 7 6 5 6 8 7 5 4 4 3 3 2 1 1 3 1 1 3 3 2 3 4 4 5 6 6 6 6 5 4 2 1 2 1 1 1 1 1 1 2 2 1 2 3 4 5 7 7 7 7 7 8 8 9 9
6 4 3 4 5 5 5 5 7 7 6 6 4 4 4 4 2 1 3 4 4 4 5 5 4 5 8 9 7 5 6 6 7 7 7 7 6 5 4 4 4 2 2 2 3 3 1 1 2 1 1 2 3 3 4 4 4 4 3 1 0 1 1 1 1 1 1 0 2 3 2 2 3 4 4 5 6 6 6 6 7 8 8 8 9
7 5 3 3 3 4 5 6 8 9 8 7 8 9 10 8 5 3 5 7 6 4 4 5 5 7 8 9 8 7 6 7 8 9 8 7 7 7 6 6 6 5 6 6 5 5 5 4 4 3 3 3 4 4 3 2 2 2 0 0 1 2 1 1 2 2 1 1 1 2 2 3 5 5 4 3 4 5 6 7 7 8 8 9 10
8 6 4 2 2 2 3 4 4 5 5 6 7 9 10 9 8 8 7 7 9 10 10 9 6 9 13 14 12 11 10 9 9 10 10 9 8 8 8 7 7 7 8 7 7 8 7 5 5 5 5 4 4 3 3 3 2 2 1 2 1 1 1 2 3 3 2 2 2 2 2 3 4 3 3 3 4 5 6 7 8 9 9 10 11
7 6 5 4 4 4 3 3 3 3 3 3 4 6 6 5 7 9 8 7 8 11 12 14 12 5 11 15 14 12 10 9 9 10 11 11 10 9 10 10 10 10 10 9 9 9 8 7 8 8 7 5 3 2 3 3 3 3 3 3 3 3 2 1 2 2 1 2 4 5 4 4 5 4 5 5 5 6 7 8 9 10 10 11 11
6 6 5 6 6 6 5 5 5 5 4 4 4 5 4 4 5 6 6 6 7 7 8 11 12 7 4 11 13 13 11 10 10 10 11 12 12 13 13 12 12 12 13 13 12 11 10 10 11 11 8 5 3 1 1 0 1 2 3 3 3 3 3 3 5 5 6 7 6 6 5 5 5 5 5 5 6 6 7 8 9 10 11 11 11
5 5 5 5 5 5 5 6 7 6 6 6 7 6 6 7 8 7 6 5 5 5 5 6 8 7 3 6 9 10 10 11 11 12 12 12 13 13 12 11 10 10 11 12 13 13 11 8 10 11 8 5 6 4 2 1 1 1 1 1 2 3 3 4 6 8 9 9 7 6 6 5 5 6 5 5 6 7 8 9 10 11 11 12 12
4 5 5 5 6 6 5 5 6 5 5 6 6 7 7 7 8 8 8 8 8 7 6 6 7 8 7 6 8 9 11 12 12 12 12 12 12 10 8 10 12 10 8 7 6 8 7 4 7 10 9 8 8 7 4 2 2 2 2 3 5 5 4 3 1 3 5 5 5 5 6 6 6 6 6 7 8 9 9 10 11 11 12 13 13
5 6 6 6 6 6 6 6 6 5 5 6 6 6 7 7 7 7 7 8 9 8 8 8 8 7 7 7 7 7 7 8 10 10 10 11 11 9 9 11 12 10 7 3 1 3 4 3 6 9 10 10 8 5 2 1 2 3 3 3 3 3 3 3 3 3 3 3 3 4 5 5 6 6 7 8 8 9 10 10 10 12 13 13 14
5 6 6 6 6 6 6 7 6 6 6 7 7 6 6 6 7 7 7 8 8 8 8 8 8 9 9 9 8 8 9 10 11 11 11 11 11 11 11 10 7 5 7 7 7 6 5 5 7 8 8 7 4 2 1 3 4 4 3 2 1 2 4 5 5 5 6 7 6 6 5 7 7 7 7 8 8 9 9 10 11 13 14 14 15
6 6 6 6 6 6 6 6 6 6 7 7 6 7 7 6 6 7 7 7 8 9 9 9 9 10 10 9 7 6 7 9 10 11 12 11 10 9 7 2 3 5 6 9 12 13 12 11 11 10 9 6 3 2 3 4 4 3 2 1 1 3 5 6 6 7 8 8 5 3 3 5 7 7 7 8 9 9 10 11 12 13 15 15 16
5 6 6 6 6 7 6 7 7 7 7 7 7 7 7 7 7 8 8 8 8 9 10 11 11 11 11 11 9 8 8 9 10 10 10 10 8 5 3 4 6 9 12 13 13 13 12 10 9 8 7 6 6 6 5 5 5 5 5 5 5 7 8 9 9 9 9 6 1 1 2 5 6 6 8 9 10 11 12 13 14 15 16 16 16
Wind_Direction
187 190 194 195 195 194 195 196 196 198 201 201 202 204 205 206 205 204 205 206 203 202 207 209 206 204 208 211 212 212 209 210 211 210 216 224 227 237 242 227 224 232 245 258 265 268 271 275 273 269 270 272 276 281 273 264 261 261 255 226 186 170 201 233 228 291 301 307 337 352 360 352 3 336 295 278 267 280 346 359 344 326 307 278 279
189 190 193 196 197 197 196 197 198 200 203 204 204 205 207 207 208 208 208 208 206 203 206 211 215 212 212 215 220 221 214 208 211 217 219 222 225 234 239 235 239 246 251 259 263 264 266 269 273 274 270 268 270 276 286 308 359 1 304 270 257 237 294 308 267 288 301 309 340 349 347 343 336 313 313 312 292 298 352 358 357 357 323 255 270
189 190 193 196 199 199 199 198 198 202 206 206 206 208 208 207 209 212 212 209 207 207 207 210 218 223 221 222 227 229 219 208 215 225 227 227 229 236 242 243 244 246 250 257 260 261 263 264 267 268 270 278 283 288 305 327 0 14 18 12 356 348 9 10 7 346 330 323 337 336 332 337 332 316 321 322 307 317 356 353 347 4 352 227 255
190 189 192 197 200 200 201 202 200 202 206 208 207 209 211 209 208 213 217 212 205 205 209 209 214 223 227 228 233 233 224 219 224 230 235 237 237 242 248 251 252 252 256 261 261 261 261 261 265 269 273 285 293 302 331 332 313 321 42 57 33 41 46 23 37 360 323 310 313 323 327 334 331 316 316 316 306 310 342 346 332 340 353 223 240
190 189 191 198 201 200 202 205 204 203 207 210 209 209 213 213 207 208 217 219 206 201 209 215 218 223 226 229 233 230 226 227 230 234 240 242 243 246 249 250 255 260 263 265 265 266 267 267 270 274 273 272 281 291 302 295 288 294 311 95 71 20 270 261 228 173 288 297 305 323 332 334 331 321 318 317 308 296 299 324 335 343 350 350 232
190 188 191 198 202 202 203 205 207 206 206 212 213 210 214 219 211 202 207 218 216 207 211 217 222 225 226 228 231 229 228 230 233 238 243 247 249 251 253 255 256 259 262 264 266 268 269 272 272 263 256 261 272 281 279 275 285 311 337 109 111 267 259 257 260 227 219 300 311 330 332 329 328 325 322 317 313 309 305 307 320 1 355 314 233
192 190 191 197 202 206 206 204 208 210 208 212 215 213 214 221 218 203 199 211 219 219 216 215 219 224 225 226 229 230 230 230 233 237 242 248 252 253 255 257 256 257 261 265 269 269 266 270 273 262 258 261 261 258 263 277 299 336 333 221 215 270 262 245 267 278 292 300 306 312 309 309 313 316 318 316 311 308 306 304 313 10 355 313 260
191 191 192 196 200 206 211 209 208 211 212 214 218 222 220 222 222 210 201 208 217 222 223 220 220 222 224 225 226 228 230 231 234 239 241 244 247 251 254 251 250 250 252 263 275 276 268 263 263 267 270 266 249 248 262 295 330 6 200 215 223 279 315 241 264 286 272 277 293 302 297 288 280 289 306 313 304 301 308 315 325 352 335 313 301
176 176 183 200 202 204 215 221 213 209 210 209 214 227 232 228 227 223 217 216 219 224 226 224 224 223 222 224 224 227 230 230 231 234 237 238 240 248 252 248 251 253 252 259 269 278 281 273 263 263 272 267 235 223 210 194 249 223 219 233 240 263 271 202 195 228 250 258 276 282 274 258 251 265 288 310 312 302 306 312 319 336 328 309 292
174 168 174 196 207 201 210 222 214 206 211 210 209 223 243 242 238 240 239 234 232 235 233 231 231 230 228 227 225 225 229 228 227 229 234 236 236 244 258 265 270 274 274 270 272 294 319 311 300 288 291 306 280 241 232 238 236 218 223 235 235 240 237 208 188 209 246 255 257 264 265 252 239 282 301 317 327 301 299 309 316 328 325 300 272
180 177 180 190 199 199 209 223 222 215 219 218 213 220 236 246 246 259 277 268 263 286 286 275 271 267 269 267 248 229 224 225 228 232 235 236 235 238 253 264 269 282 288 278 294 346 343 329 333 316 303 318 304 280 267 254 243 240 244 239 204 205 217 209 195 210 249 263 256 258 270 280 321 326 309 324 331 309 306 313 315 318 311 285 268
184 180 180 185 191 190 195 209 216 216 217 218 220 224 231 235 236 250 269 258 242 265 274 279 300 294 265 265 257 237 229 231 236 241 243 242 240 240 248 258 263 271 278 281 329 15 1 283 294 277 246 281 292 284 272 238 235 251 237 183 155 182 204 206 203 213 234 250 252 257 277 311 351 348 344 348 341 325 320 316 310 311 305 294 292
183 185 182 181 188 193 191 193 200 207 213 216 219 223 228 231 230 236 248 241 239 252 244 242 303 295 246 246 254 249 242 241 244 252 255 249 240 238 246 261 265 264 271 286 317 332 274 248 249 237 210 207 220 220 230 235 227 223 209 172 152 179 199 191 180 193 224 239 247 257 273 266 136 49 359 354 345 346 341 327 322 325 313 303 295
170 179 175 168 178 193 193 191 194 199 210 219 221 222 226 233 236 234 228 223 235 246 231 204 251 269 250 253 266 264 256 251 252 259 261 249 235 234 241 254 262 261 264 270 282 290 281 264 246 229 218 214 204 202 220 231 217 221 224 203 188 201 212 195 173 148 152 210 211 188 187 189 184 194 231 285 299 311 318 317 317 308 296 295 289
166 182 171 164 174 184 186 184 186 194 206 218 229 232 230 231 236 236 225 223 234 239 230 219 223 237 247 258 266 272 273 264 255 253 249 238 232 235 241 248 257 261 262 260 268 296 301 272 239 227 221 215 203 198 216 224 215 223 231 216 211 233 251 224 200 170 140 159 184 191 192 194 199 219 264 282 281 275 271 297 311 302 293 294 273
161 179 193 191 186 187 190 188 187 194 202 212 224 230 226 226 233 233 224 227 237 237 227 216 208 217 239 251 251 261 275 268 247 236 234 230 234 241 248 255 256 258 268 269 259 254 258 240 219 219 220 219 212 206 218 227 223 229 227 196 190 223 259 239 234 243 215 192 196 200 199 208 241 274 287 283 284 281 268 291 325 344 334 309 271
166 178 190 193 190 195 199 199 198 197 199 206 212 215 220 224 228 228 222 225 230 228 221 212 204 211 226 232 233 247 258 253 241 237 235 232 239 244 248 253 249 238 259 271 252 227 213 187 183 213 218 218 216 213 219 217 208 219 221 184 173 188 178 125 115 113 140 156 154 157 170 195 267 293 300 305 320 309 296 331 359 2 348 328 346
170 181 187 186 189 196 195 197 202 201 201 206 207 209 216 220 220 219 212 204 202 205 208 208 205 205 213 223 234 239 241 245 254 255 244 239 242 238 234 239 236 221 225 248 254 239 207 181 189 211 211 200 199 201 199 190 199 235 242 199 179 182 170 149 130 110 98 91 85 76 71 74 69 57 39 21 7 348 1 34 19 4 358 354 3
161 173 185 190 196 199 196 198 205 206 209 213 212 213 213 210 207 204 197 186 184 189 201 206 196 170 144 128 134 179 217 245 265 262 253 248 243 230 223 230 232 221 219 221 221 220 204 191 194 203 206 200 204 222 211 196 204 241 245 218 207 198 178 165 146 122 111 101 94 93 89 77 55 37 33 29 29 39 59 62 44 32 29 7 350
166 179 200 203 197 196 200 205 208 209 213 214 212 211 207 201 196 192 191 190 185 183 186 184 164 135 129 142 160 176 198 222 239 252 255 250 241 227 223 240 252 241 227 212 193 181 190 195 191 196 207 212 227 250 245 229 219 216 230 240 226 179 159 155 146 138 135 123 111 108 102 101 89 43 37 39 38 36 38 52 57 44 36 18 4
171 179 192 193 190 196 202 207 212 216 218 213 209 206 202 201 199 195 192 193 186 171 160 162 160 140 128 147 183 192 204 220 229 251 256 247 242 228 223 242 254 237 212 185 166 171 192 201 196 199 207 214 233 246 243 234 219 211 223 232 185 158 154 148 134 129 125 108 95 89 79 89 101 67 49 51 47 36 28 36 52 49 36 28 23
164 163 169 178 186 191 191 193 205 213 217 219 220 218 206 198 197 197 195 190 182 171 162 162 162 146 132 145 192 210 223 235 245 272 270 258 247 220 217 236 245 231 212 186 173 179 189 190 184 185 196 210 235 228 194 192 191 183 179 168 153 150 144 126 107 99 100 100 101 93 72 72 88 78 61 48 38 38 33 25 32 41 33 28 33
152 151 158 171 181 192 196 193 195 198 205 216 232 245 229 211 208 205 194 181 170 165 167 165 154 143 137 134 144 171 148 89 61 28 8 344 337 185 190 212 226 225 214 198 188 182 177 176 174 168 148 116 105 103 114 137 150 145 133 123 117 113 112 113 111 105 104 103 101 92 73 63 70 76 67 37 22 37 51 30 17 20 13 9 16
143 140 147 159 170 183 179 165 162 171 179 188 196 211 217 221 226 205 176 166 160 156 158 158 149 140 134 126 122 114 95 93 87 72 61 43 24 95 146 156 174 193 190 185 184 176 164 158 153 141 128 118 110 103 108 121 126 124 119 111 106 106 111 114 114 111 104 93 87 91 80 64 61 52 38 36 32 35 41 30 9 4 5 1 358
121 121 123 125 126 125 123 120 128 141 151 164 171 160 136 174 229 172 140 143 146 145 147 151 149 145 139 133 128 119 107 103 100 95 94 91 82 85 112 145 148 138 152 165 171 164 152 144 139 132 127 122 115 110 114 120 120 118 115 108 106 111 114 111 107 108 106 100 97 96 84 74 62 39 42 64 49 31 30 31 23 14 7 353 341
97 94 94 97 104 110 113 112 112 119 124 127 135 144 131 123 123 108 113 123 131 134 138 143 141 137 136 139 137 132 127 123 119 114 110 101 87 79 88 113 113 113 137 149 148 143 137 133 129 121 117 119 120 119 122 125 125 122 116 109 110 116 111 100 93 86 87 98 109 112 105 104 56 36 62 101 82 44 40 31 21 13 360 348 346
93 91 93 99 104 104 101 102 107 113 116 115 112 108 103 105 113 118 119 122 125 127 130 134 131 128 133 139 136 132 134 136 134 127 117 105 91 82 80 86 91 100 118 130 133 134 131 125 120 118 119 123 123 123 125 126 123 116 103 92 102 114 109 101 96 84 70 80 96 105 105 133 274 320 5 153 138 89 49 20 13 10 1 354 353
93 94 96 98 95 91 95 103 110 111 110 110 109 106 104 105 108 111 116 126 134 137 137 142 149 150 144 137 129 130 137 138 131 122 114 107 101 96 95 96 94 97 118 136 137 135 133 129 127 128 130 130 130 131 134 133 130 125 119 116 119 116 110 108 104 90 66 64 92 115 109 309 290 312 336 56 102 79 24 12 17 12 359 354 352
95 96 95 92 90 94 101 107 107 104 102 103 101 97 98 103 103 104 111 124 135 138 135 136 140 139 137 134 131 132 138 140 134 128 121 117 116 116 119 122 120 119 137 148 141 135 134 133 136 143 146 146 152 160 162 164 164 155 151 162 155 136 129 120 102 83 66 47 356 320 334 4 26 45 27 35 57 45 12 10 14 359 350 350 347
96 95 93 93 96 98 100 101 101 99 98 99 97 95 95 99 99 99 102 107 114 120 122 125 128 128 130 138 139 135 138 140 135 130 128 133 142 145 150 160 161 158 161 159 152 151 152 152 159 169 169 169 181 189 184 179 175 157 144 138 108 101 102 102 92 71 73 116 341 358 38 31 27 39 36 24 25 16 4 5 359 348 351 353 344
95 93 94 99 102 102 101 101 100 99 99 99 100 98 96 94 94 94 96 98 101 106 112 120 123 123 127 138 138 127 129 141 144 143 152 176 192 201 210 202 184 173 173 174 176 178 174 173 181 186 187 196 210 207 181 163 150 137 141 148 134 110 102 104 97 57 35 38 31 38 52 37 27 35 29 12 5 358 354 355 350 348 353 348 340
93 95 100 106 106 103 104 105 103 103 104 104 103 101 96 92 89 91 96 100 100 101 106 112 115 114 120 134 137 134 152 183 225 243 241 239 238 238 234 221 205 194 186 186 195 203 196 194 198 201 207 213 216 197 155 142 130 120 134 128 121 117 109 110 120 49 25 21 18 35 50 41 31 28 15 1 358 355 353 354 353 352 353 350 349
93 96 100 105 108 109 114 117 121 125 126 122 118 114 110 104 99 97 101 107 111 115 119 119 118 122 137 147 173 239 246 255 264 263 259 251 231 215 223 219 209 203 197 198 219 269 262 229 218 222 228 216 182 133 119 128 132 137 109 96 98 102 90 80 91 91 59 27 11 36 60 45 27 19 8 2 360 357 357 357 357 359 1 357 351
87 90 93 96 100 106 113 118 120 126 132 137 135 126 116 114 119 122 121 118 117 118 123 135 147 149 213 258 270 277 272 273 277 262 242 231 203 196 221 219 203 201 204 209 236 303 317 287 234 224 230 149 128 115 103 106 109 100 81 84 95 96 77 69 86 106 94 47 27 46 59 37 18 12 7 3 360 359 357 352 351 359 1 353 346
89 91 94 94 90 88 89 87 84 86 95 113 119 111 107 117 130 137 139 138 130 122 124 151 161 158 234 255 266 317 351 46 31 65 175 175 170 167 181 203 197 203 220 237 263 306 332 354 58 84 80 87 97 94 85 87 96 89 77 86 96 88 73 73 86 94 95 70 36 27 20 14 13 6 356 352 354 356 350 343 348 359 358 350 346
96 94 91 91 91 90 87 85 86 81 67 73 103 117 140 167 167 150 145 150 141 134 143 165 169 160 166 153 133 106 79 80 79 114 147 149 146 136 124 137 189 213 250 274 288 304 336 29 54 66 73 75 77 80 79 80 95 111 108 103 100 96 95 96 92 90 100 98 30 6 8 14 3 348 348 358 2 356 347 346 354 355 347 339 332
72 77 82 83 87 97 98 92 106 118 87 58 82 121 164 177 158 147 156 161 153 148 159 179 187 171 163 156 143 125 102 99 120 149 162 159 148 130 125 167 200 228 262 273 290 306 323 29 45 53 66 68 65 75 89 95 103 106 103 95 88 87 88 72 37 22 37 10 335 336 8 21 9 9 13 5 352 343 345 355 354 342 334 331 328
56 61 83 82 70 91 118 114 120 150 145 100 91 104 70 74 76 79 135 142 147 156 162 170 184 183 178 173 158 135 115 113 132 146 158 158 153 141 221 226 215 221 230 230 242 273 278 300 71 64 82 93 91 90 99 106 103 94 82 74 66 51 40 25 357 345 354 359 342 344 59 28 18 26 10 351 349 357 3 0 348 336 334 339 341
66 65 82 62 25 20 100 122 139 197 196 164 144 151 130 129 160 260 104 132 159 175 169 171 190 198 187 178 172 165 160 159 169 181 183 181 189 243 284 270 235 229 223 194 189 227 276 111 114 105 96 98 93 85 83 84 79 66 61 67 60 28 6 2 351 351 11 27 27 43 23 354 15 36 21 10 13 10 358 346 339 337 342 348 350
66 61 55 41 18 4 11 64 67 246 220 142 176 210 178 158 187 197 188 190 193 190 185 192 203 203 194 190 188 186 190 209 233 227 211 209 221 231 241 256 255 251 258 121 144 156 33 64 91 83 73 79 80 79 79 74 68 69 69 69 64 9 330 328 122 116 79 49 11 356 359 46 66 54 28 8 360 353 345 339 339 344 347 346 344
38 32 21 24 19 358 343 356 9 17 28 28 12 360 357 345 319 293 291 268 228 201 212 226 224 210 205 204 203 199 200 222 248 252 231 218 220 220 222 236 238 216 202 194 183 193 198 134 110 89 89 98 88 84 88 82 74 71 58 23 210 224 278 292 223 226 234 260 1 1 23 47 16 347 341 344 346 347 346 339 335 336 338 337 337
13 9 13 17 4 334 325 346 4 11 16 14 4 359 357 353 349 346 333 324 319 303 266 246 228 217 220 225 226 223 219 227 247 262 260 235 219 217 222 224 218 208 203 195 183 184 186 162 139 132 127 117 107 98 94 97 104 101 74 231 190 208 268 328 9 14 28 50 327 316 320 324 322 323 333 347 348 343 337 331 329 329 329 332 337
350 345 346 345 334 319 315 325 340 352 4 6 355 346 346 349 349 344 337 332 328 323 314 305 276 223 216 225 230 225 222 228 238 254 266 258 235 223 221 219 212 204 200 193 184 178 174 162 151 143 124 108 105 95 80 91 121 124 69 49 59 59 33 16 4 355 348 345 334 325 320 324 329 334 335 326 325 328 329 326 326 327 329 333 334
338 341 350 352 350 348 340 328 329 341 349 339 316 305 307 317 323 324 321 319 320 317 314 320 325 284 211 214 218 212 214 232 244 250 261 266 257 238 225 221 217 208 202 201 195 186 183 178 162 143 125 115 120 103 77 88 97 86 73 76 74 71 70 8 336 313 162 103 49 29 15 355 344 337 329 329 337 344 339 331 327 326 328 329 327
345 352 353 350 349 347 351 1 3 352 327 307 294 288 289 290 293 296 294 292 297 297 296 308 323 328 199 199 209 212 220 239 253 258 261 266 267 260 250 242 231 216 208 207 203 196 194 184 162 144 131 125 127 111 31 87 98 71 71 82 77 72 76 64 54 69 93 90 60 28 8 352 342 337 340 348 349 339 326 319 319 320 323 325 326
358 2 346 342 347 343 343 354 355 344 332 331 330 324 320 319 315 313 311 309 307 305 299 300 308 311 266 201 207 220 231 242 256 265 266 265 267 270 272 268 255 236 230 229 218 208 204 185 153 143 143 143 133 120 90 13 333 329 335 132 138 135 126 104 86 79 75 70 54 27 5 354 347 341 341 340 329 316 312 318 323 324 325 326 327
11 7 352 356 4 356 346 347 344 333 323 320 317 312 312 315 316 317 320 323 322 316 305 293 284 278 267 245 232 235 241 249 257 262 266 272 277 278 275 273 264 254 260 274 248 217 213 181 137 141 155 158 147 141 127 88 75 110 144 160 171 178 189 201 167 75 62 65 63 35 7 353 343 336 331 326 319 318 324 329 329 325 323 323 322
12 11 8 9 5 354 348 350 349 342 333 328 327 327 326 323 322 319 313 311 311 309 308 312 312 305 302 302 296 287 286 288 289 287 285 286 288 291 297 297 283 253 231 231 224 213 219 179 139 148 159 154 140 132 135 152 162 171 171 174 184 197 227 258 280 315 328 311 311 336 336 321 311 314 317 318 321 325 329 326 321 318 317 316 314
10 12 10 5 357 352 353 354 348 340 338 337 335 332 328 322 322 321 317 316 318 316 312 311 312 311 311 314 319 332 342 342 336 329 319 306 298 301 310 317 306 239 196 170 155 167 178 152 125 127 138 138 124 98 131 163 179 196 200 202 248 284 296 295 295 305 305 295 290 296 295 291 295 304 310 314 318 320 319 317 316 316 314 310 308
12 11 5 2 1 1 358 353 346 344 348 351 347 342 341 339 333 330 331 331 330 328 325 320 318 321 326 328 330 338 344 343 337 330 326 323 320 317 320 351 100 122 130 134 141 148 147 131 111 99 93 87 85 127 157 155 159 165 146 84 313 304 313 316 315 316 315 308 295 277 285 301 308 311 313 317 321 319 315 315 315 312 309 307 306
10 4 1 4 4 1 358 357 357 355 355 355 350 346 344 341 339 340 342 340 340 342 341 339 339 339 338 341 355 13 14 3 353 345 342 345 353 8 41 84 111 124 126 125 128 133 133 125 114 108 105 105 116 130 128 108 93 86 67 32 358 341 339 337 333 331 327 321 312 95 6 336 328 324 324 327 328 321 315 312 309 306 306 305 306